Multibeam Report for H11324


Ship Name: Thomas Jefferson
Chief Scientist:
Source Organization: National Oceanic and Atmospheric Administration (NOAA)
Start Date: 2004-04-01
End Date: 2004-04-30


View ISO Metadata

Visit the full NCEI Bathymetry Viewer


Multibeam Bathymetry

Cruise Details

Project: FGBNMS
Instrument: Kongsberg EM300

Data Quality

Number of Files: 169
Number of Records: 301074
BATHYMETRY DATA Quantity Percentage
Number of Beams 33419214 100%
Number of Good Beams 33171159 99.26%
Number of Zero Beams 248055 0.74%
Number of Flagged Beams 0 0%

Navigation Totals

Total Time: 96.1702 hours
Total Track Length: 1489.2242 km
Average Speed: 15.485 km/hr (8.3612 knots)

Cruise Bounds

Northern Extent: 27.986193
Southern Extent: 27.744392
Western Extent: -94.030426
Eastern Extent: -93.40575

Limits

Minimum Sonar Depth 2.36 Maximum Sonar Depth 6.89
Minimum Altitude 0 Maximum Altitude 323.62
Minimum Depth 17.91 Maximum Depth 462.9

File Information

Full Resolution Bathymetry as collected (raw): 167

Files File Size Description
0001_20040516_082415_raw.all.mb56.gz 21.22MB Simrad multibeam vendor format
0001_20040517_172533_raw.all.mb56.gz 5.43MB Simrad multibeam vendor format
0001_20040518_234338_raw.all.mb56.gz 6.20MB Simrad multibeam vendor format
0003_20040518_185227_raw.all.mb56.gz 10.97MB Simrad multibeam vendor format
0004_20040516_165505_raw.all.mb56.gz 25.61MB Simrad multibeam vendor format
0004_20040518_181514_raw.all.mb56.gz 13.14MB Simrad multibeam vendor format
0005_20040518_152708_raw.all.mb56.gz 3.92MB Simrad multibeam vendor format
0006_20040518_153503_raw.all.mb56.gz 14.88MB Simrad multibeam vendor format
0007_20040518_161110_raw.all.mb56.gz 15.59MB Simrad multibeam vendor format
0007_20040518_164906_raw.all.mb56.gz 10.05MB Simrad multibeam vendor format
0007_20040520_062344_raw.all.mb56.gz 2.16MB Simrad multibeam vendor format
0008_20040518_171515_raw.all.mb56.gz 7.75MB Simrad multibeam vendor format
0008_20040520_062941_raw.all.mb56.gz 10.18MB Simrad multibeam vendor format
0009_20040518_173725_raw.all.mb56.gz 5.83MB Simrad multibeam vendor format
0010_20040518_062601_raw.all.mb56.gz 10.50MB Simrad multibeam vendor format
0010_20040518_175630_raw.all.mb56.gz 4.12MB Simrad multibeam vendor format
0011_20040518_065929_raw.all.mb56.gz 18.64MB Simrad multibeam vendor format
0011_20040518_143232_raw.all.mb56.gz 13.47MB Simrad multibeam vendor format
0012_20040518_141026_raw.all.mb56.gz 8.84MB Simrad multibeam vendor format
0012_20040518_150334_raw.all.mb56.gz 2.59MB Simrad multibeam vendor format
0013_20040518_151757_raw.all.mb56.gz 4.39MB Simrad multibeam vendor format
0014_20040519_220131_raw.all.mb56.gz 6.42MB Simrad multibeam vendor format
0015_20040519_221925_raw.all.mb56.gz 5.18MB Simrad multibeam vendor format
0016_20040519_234313_raw.all.mb56.gz 3.95MB Simrad multibeam vendor format
0018_20040519_232123_raw.all.mb56.gz 8.11MB Simrad multibeam vendor format
0036_20040516_122850_raw.all.mb56.gz 4.92MB Simrad multibeam vendor format
0037_20040516_124112_raw.all.mb56.gz 20.97MB Simrad multibeam vendor format
0038_20040516_131926_raw.all.mb56.gz 24.74MB Simrad multibeam vendor format
0039_20040516_135917_raw.all.mb56.gz 12.10MB Simrad multibeam vendor format
0040_20040516_142818_raw.all.mb56.gz 27.94MB Simrad multibeam vendor format
0041_20040516_154257_raw.all.mb56.gz 4.02MB Simrad multibeam vendor format
0042_20040516_161916_raw.all.mb56.gz 11.58MB Simrad multibeam vendor format
0045_20040514_025342_raw.all.mb56.gz 6.63MB Simrad multibeam vendor format
0054_20040517_130539_raw.all.mb56.gz 8.58MB Simrad multibeam vendor format
0054_20040517_133500_raw.all.mb56.gz 7.34MB Simrad multibeam vendor format
0054_20040518_135259_raw.all.mb56.gz 7.40MB Simrad multibeam vendor format
0054_20040518_232408_raw.all.mb56.gz 2.44MB Simrad multibeam vendor format
0054_20040519_004747_raw.all.mb56.gz 15.01MB Simrad multibeam vendor format
0054_20040520_112655_raw.all.mb56.gz 7.19MB Simrad multibeam vendor format
0055_20040517_134909_raw.all.mb56.gz 310.1KB Simrad multibeam vendor format
0056_20040517_135204_raw.all.mb56.gz 14.24MB Simrad multibeam vendor format
0061_20040516_220326_raw.all.mb56.gz 10.13MB Simrad multibeam vendor format
0061_20040517_233019_raw.all.mb56.gz 6.66MB Simrad multibeam vendor format
0062_20040518_120623_raw.all.mb56.gz 36.02MB Simrad multibeam vendor format
0063_20040518_133754_raw.all.mb56.gz 0.73MB Simrad multibeam vendor format
0087_20040519_211912_raw.all.mb56.gz 12.37MB Simrad multibeam vendor format
0100_20040518_005156_raw.all.mb56.gz 6.38MB Simrad multibeam vendor format
0101_20040518_002035_raw.all.mb56.gz 6.36MB Simrad multibeam vendor format
0102_20040518_010913_raw.all.mb56.gz 6.60MB Simrad multibeam vendor format
0103_20040518_003656_raw.all.mb56.gz 5.75MB Simrad multibeam vendor format
0103_20040518_012312_raw.all.mb56.gz 1.31MB Simrad multibeam vendor format
0104_20040518_000451_raw.all.mb56.gz 5.58MB Simrad multibeam vendor format
0104_20040518_012535_raw.all.mb56.gz 15.3KB Simrad multibeam vendor format
0106_20040518_092949_raw.all.mb56.gz 27.28MB Simrad multibeam vendor format
0106_20040518_111242_raw.all.mb56.gz 3.26MB Simrad multibeam vendor format
0107_20040518_112623_raw.all.mb56.gz 10.04MB Simrad multibeam vendor format
0131_20040520_113912_raw.all.mb56.gz 7.76MB Simrad multibeam vendor format
0132_20040520_115754_raw.all.mb56.gz 7.54MB Simrad multibeam vendor format
0133_20040520_121712_raw.all.mb56.gz 21.10MB Simrad multibeam vendor format
0136_20040517_164046_raw.all.mb56.gz 19.35MB Simrad multibeam vendor format
0138_20040517_150816_raw.all.mb56.gz 19.77MB Simrad multibeam vendor format
0139_20040517_155349_raw.all.mb56.gz 18.58MB Simrad multibeam vendor format
0140_20040517_180549_raw.all.mb56.gz 7.22MB Simrad multibeam vendor format
0141_20040517_142456_raw.all.mb56.gz 19.58MB Simrad multibeam vendor format
0141_20040517_173720_raw.all.mb56.gz 13.02MB Simrad multibeam vendor format
0144_20040520_125904_raw.all.mb56.gz 2.02MB Simrad multibeam vendor format
0145_20040520_130354_raw.all.mb56.gz 11.79MB Simrad multibeam vendor format
0148_20040517_185107_raw.all.mb56.gz 10.53MB Simrad multibeam vendor format
0149_20040517_191946_raw.all.mb56.gz 10.37MB Simrad multibeam vendor format
0150_20040517_194712_raw.all.mb56.gz 10.68MB Simrad multibeam vendor format
0151_20040517_201704_raw.all.mb56.gz 10.53MB Simrad multibeam vendor format
0152_20040517_211252_raw.all.mb56.gz 9.27MB Simrad multibeam vendor format
0153_20040517_213535_raw.all.mb56.gz 9.73MB Simrad multibeam vendor format
0156_20040517_220210_raw.all.mb56.gz 9.74MB Simrad multibeam vendor format
0157_20040517_223029_raw.all.mb56.gz 4.03MB Simrad multibeam vendor format
0158_20040517_224211_raw.all.mb56.gz 5.18MB Simrad multibeam vendor format
0159_20040517_231242_raw.all.mb56.gz 4.57MB Simrad multibeam vendor format
0159_20040520_133759_raw.all.mb56.gz 5.68MB Simrad multibeam vendor format
0160_20040518_210325_raw.all.mb56.gz 30.06MB Simrad multibeam vendor format
0161_20040518_221619_raw.all.mb56.gz 18.94MB Simrad multibeam vendor format
0162_20040519_000654_raw.all.mb56.gz 16.70MB Simrad multibeam vendor format
0163_20040520_033438_raw.all.mb56.gz 17.19MB Simrad multibeam vendor format
0164_20040520_025150_raw.all.mb56.gz 15.09MB Simrad multibeam vendor format
0164_20040520_041651_raw.all.mb56.gz 14.92MB Simrad multibeam vendor format
0165_20040520_015553_raw.all.mb56.gz 17.53MB Simrad multibeam vendor format
0167_20040520_001427_raw.all.mb56.gz 14.94MB Simrad multibeam vendor format
0168_20040520_011741_raw.all.mb56.gz 16.08MB Simrad multibeam vendor format
0174_20040519_114307_raw.all.mb56.gz 25.89MB Simrad multibeam vendor format
0175_20040519_123811_raw.all.mb56.gz 45.22MB Simrad multibeam vendor format
0175_20040519_140439_raw.all.mb56.gz 31.42MB Simrad multibeam vendor format
0176_20040519_151108_raw.all.mb56.gz 27.73MB Simrad multibeam vendor format
0177_20040519_161012_raw.all.mb56.gz 26.61MB Simrad multibeam vendor format
0178_20040519_171459_raw.all.mb56.gz 29.64MB Simrad multibeam vendor format
0179_20040519_182311_raw.all.mb56.gz 28.88MB Simrad multibeam vendor format
0180_20040519_201554_raw.all.mb56.gz 17.66MB Simrad multibeam vendor format
0180_20040519_205056_raw.all.mb56.gz 9.26MB Simrad multibeam vendor format
0181_20040520_093145_raw.all.mb56.gz 27.42MB Simrad multibeam vendor format
0182_20040520_065456_raw.all.mb56.gz 31.33MB Simrad multibeam vendor format
0183_20040520_083230_raw.all.mb56.gz 27.54MB Simrad multibeam vendor format
0184_20040518_195532_raw.all.mb56.gz 26.48MB Simrad multibeam vendor format
0189_20040520_135401_raw.all.mb56.gz 7.75MB Simrad multibeam vendor format
0190_20040520_141531_raw.all.mb56.gz 2.86MB Simrad multibeam vendor format
0191_20040520_142312_raw.all.mb56.gz 2.31MB Simrad multibeam vendor format
0192_20040520_143058_raw.all.mb56.gz 3.16MB Simrad multibeam vendor format
0193_20040520_143932_raw.all.mb56.gz 2.55MB Simrad multibeam vendor format
0194_20040520_145407_raw.all.mb56.gz 3.74MB Simrad multibeam vendor format
0305_20040517_000503_raw.all.mb56.gz 45.71MB Simrad multibeam vendor format
0306_20040517_104358_raw.all.mb56.gz 30.96MB Simrad multibeam vendor format
0309_20040515_152513_raw.all.mb56.gz 56.16MB Simrad multibeam vendor format
0310_20040515_175611_raw.all.mb56.gz 68.27MB Simrad multibeam vendor format
0311_20040516_103344_raw.all.mb56.gz 40.03MB Simrad multibeam vendor format
0311_20040516_230237_raw.all.mb56.gz 17.01MB Simrad multibeam vendor format
0322_20040514_181809_raw.all.mb56.gz 51.35MB Simrad multibeam vendor format
0323_20040514_202936_raw.all.mb56.gz 60.56MB Simrad multibeam vendor format
0324_20040514_232139_raw.all.mb56.gz 53.77MB Simrad multibeam vendor format
0325_20040515_012613_raw.all.mb56.gz 68.06MB Simrad multibeam vendor format
0326_20040515_042109_raw.all.mb56.gz 57.80MB Simrad multibeam vendor format
0327_20040515_063608_raw.all.mb56.gz 29.22MB Simrad multibeam vendor format
0328_20040515_074425_raw.all.mb56.gz 21.86MB Simrad multibeam vendor format
0329_20040515_084448_raw.all.mb56.gz 28.77MB Simrad multibeam vendor format
0330_20040515_101638_raw.all.mb56.gz 27.50MB Simrad multibeam vendor format
0331_20040514_131541_raw.all.mb56.gz 55.52MB Simrad multibeam vendor format
0331_20040515_112428_raw.all.mb56.gz 20.28MB Simrad multibeam vendor format
0332_20040514_153328_raw.all.mb56.gz 50.68MB Simrad multibeam vendor format
0332_20040515_120824_raw.all.mb56.gz 27.53MB Simrad multibeam vendor format
0333_20040514_101741_raw.all.mb56.gz 56.72MB Simrad multibeam vendor format
0333_20040515_130107_raw.all.mb56.gz 46.98MB Simrad multibeam vendor format
0334_20040514_075808_raw.all.mb56.gz 1.78MB Simrad multibeam vendor format
0334_20040514_080235_raw.all.mb56.gz 55.3KB Simrad multibeam vendor format
0334_20040514_080255_raw.all.mb56.gz 15.17MB Simrad multibeam vendor format
0334_20040514_085206_raw.all.mb56.gz 35.42MB Simrad multibeam vendor format
0334_20040515_151120_raw.all.mb56.gz 2.91MB Simrad multibeam vendor format
0335_20040514_052519_raw.all.mb56.gz 55.27MB Simrad multibeam vendor format
0339_20040514_032035_raw.all.mb56.gz 3.81MB Simrad multibeam vendor format
0340_20040514_032657_raw.all.mb56.gz 27.67MB Simrad multibeam vendor format
0341_20040514_041923_raw.all.mb56.gz 240.0KB Simrad multibeam vendor format
0341_20040516_194420_raw.all.mb56.gz 9.37MB Simrad multibeam vendor format
0342_20040514_042052_raw.all.mb56.gz 15.19MB Simrad multibeam vendor format
0342_20040516_185146_raw.all.mb56.gz 22.77MB Simrad multibeam vendor format
0343_20040516_180141_raw.all.mb56.gz 22.89MB Simrad multibeam vendor format
0347_20040516_174847_raw.all.mb56.gz 3.30MB Simrad multibeam vendor format
0354_20040516_203519_raw.all.mb56.gz 5.20MB Simrad multibeam vendor format
0354_20040516_214723_raw.all.mb56.gz 7.66MB Simrad multibeam vendor format
0355_20040516_200507_raw.all.mb56.gz 13.60MB Simrad multibeam vendor format
0355_20040516_205056_raw.all.mb56.gz 2.53MB Simrad multibeam vendor format
0356_20040516_210137_raw.all.mb56.gz 21.28MB Simrad multibeam vendor format
0701_20040518_083851_raw.all.mb56.gz 8.14MB Simrad multibeam vendor format
0702_20040518_075133_raw.all.mb56.gz 16.62MB Simrad multibeam vendor format
0703_20040518_060623_raw.all.mb56.gz 9.28MB Simrad multibeam vendor format
0704_20040518_053627_raw.all.mb56.gz 8.12MB Simrad multibeam vendor format
0705_20040518_045554_raw.all.mb56.gz 14.67MB Simrad multibeam vendor format
0709_20040518_064820_raw.all.mb56.gz 1.23MB Simrad multibeam vendor format
0710_20040518_015805_raw.all.mb56.gz 2.35MB Simrad multibeam vendor format
0710_20040518_020313_raw.all.mb56.gz 7.18MB Simrad multibeam vendor format
0710_20040518_023025_raw.all.mb56.gz 3.99MB Simrad multibeam vendor format
0711_20040518_024213_raw.all.mb56.gz 9.73MB Simrad multibeam vendor format
0712_20040518_030523_raw.all.mb56.gz 2.58MB Simrad multibeam vendor format
0713_20040518_031203_raw.all.mb56.gz 4.19MB Simrad multibeam vendor format
0714_20040518_032204_raw.all.mb56.gz 17.36MB Simrad multibeam vendor format
0715_20040518_035823_raw.all.mb56.gz 13.6KB Simrad multibeam vendor format
0717_20040518_035848_raw.all.mb56.gz 5.51MB Simrad multibeam vendor format
0718_20040518_041425_raw.all.mb56.gz 16.62MB Simrad multibeam vendor format
0901_20040520_060813_raw.all.mb56.gz 2.53MB Simrad multibeam vendor format
0902_20040520_055646_raw.all.mb56.gz 4.29MB Simrad multibeam vendor format
0903_20040520_054213_raw.all.mb56.gz 5.21MB Simrad multibeam vendor format
0905_20040520_050831_raw.all.mb56.gz 5.90MB Simrad multibeam vendor format
0906_20040520_052307_raw.all.mb56.gz 9.03MB Simrad multibeam vendor format

Metadata Files: 1

Files File Size Description
H11324_Multibeam.xml NGDC created ISO metadata

Ancillary Files: 1

Files File Size Description
config.tar.gz 2.1KB Platform Configuration files